Jefferson, NC

6:21 AM EST on November 20, 2019 (GMT -0500)
Ashe County

Weather History for KGEV - September, 2019

Change the Weather History Date:

Sunday, September 8, 2019

  Actual Average Record
Temperature  
Mean Temperature 65 °F -  
Max Temperature 76 °F 75 °F 84 °F (1978)
Min Temperature 54 °F 53 °F 37 °F (1988)
Growing Degree Days 15 (Base 50)    
Moisture  
Dew Point 56 °F    
Average Humidity 73    
Maximum Humidity 99    
Minimum Humidity 44    
Precipitation  
Precipitation 0.00 in - - ()
Sea Level Pressure  
Sea Level Pressure 30.16 in    
Wind  
Wind Speed 1 mph ()    
Max Wind Speed 6 mph    
Max Gust Speed -    
Visibility 9.8 miles    
Events      
Averages and records for this station are not official NWS values.
T = Trace of Precipitation, MM = Missing Value Source: Averaged Metar Reports

Daily Weather History Graph

Daily Weather History Graph

Search for Another Location

Airport or City:

Astronomy

Sep. 08, 2019 Rise Set
Actual Time 7:02 AM EDT 7:43 PM EDT
Civil Twilight 6:36 AM EDT 8:09 PM EDT
Nautical Twilight 6:05 AM EDT 8:40 PM EDT
Astronomical Twilight 5:33 AM EDT 9:11 PM EDT
Moon 4:43 PM EDT (9/8) 1:48 AM EDT (9/8)
Length of Visible Light 13h 33m
Length of Day
12h 41m
Waxing Gibbous, 75% of the Moon is Illuminated
Sep 8
Waxing Gibbous
Sep 14
Full
Sep 21
Last Quarter
Sep 28
New
Oct 5
First Quarter

Hourly Weather History & Observations

Time (EDT) Temp. Dew Point Humidity Pressure Visibility Wind Dir Wind Speed Gust Speed Precip Events Conditions
12:15 AM 62.6 °F 55.4 °F 77% 30.12 in 10.0 mi Calm Calm - N/A   Clear
12:35 AM 63.5 °F 54.5 °F 72% 30.13 in 10.0 mi Calm Calm - N/A   Clear
12:55 AM 62.1 °F 54.9 °F 77% 30.12 in 10.0 mi Calm Calm - N/A   Clear
1:15 AM 61.2 °F 54.7 °F 79% 30.13 in 10.0 mi Calm Calm - N/A   Clear
1:35 AM 61.3 °F 54.9 °F 79% 30.13 in 10.0 mi Calm Calm - N/A   Clear
1:55 AM 58.8 °F 54.1 °F 84% 30.13 in 10.0 mi Calm Calm - N/A   Clear
2:15 AM 59.9 °F 54.7 °F 83% 30.13 in 10.0 mi Calm Calm - N/A   Clear
2:35 AM 56.3 °F 54.7 °F 94% 30.13 in 10.0 mi Calm Calm - N/A   Clear
2:55 AM 55.4 °F 54.7 °F 97% 30.13 in 7.0 mi Calm Calm - N/A   Clear
3:15 AM 56.3 °F 54.7 °F 94% 30.13 in 10.0 mi Calm Calm - N/A   Clear
3:35 AM 57.7 °F 56.3 °F 95% 30.13 in 10.0 mi Calm Calm - N/A   Clear
3:55 AM 57.7 °F 55.8 °F 93% 30.13 in 10.0 mi Calm Calm - N/A   Clear
4:15 AM 57.2 °F 55.8 °F 95% 30.12 in 10.0 mi Calm Calm - N/A   Clear
4:35 AM 56.8 °F 55.4 °F 95% 30.12 in 10.0 mi Calm Calm - N/A   Clear
4:55 AM 55.9 °F 55.6 °F 99% 30.12 in 7.0 mi Calm Calm - N/A   Clear
5:15 AM 55.6 °F 54.7 °F 97% 30.12 in 10.0 mi Calm Calm - N/A   Clear
5:35 AM 55.9 °F 54.9 °F 96% 30.13 in 10.0 mi Calm Calm - N/A   Clear
5:55 AM 54.1 °F 53.8 °F 99% 30.13 in 4.0 mi Calm Calm - N/A   Scattered Clouds
6:15 AM 55.0 °F 54.5 °F 98% 30.13 in 10.0 mi Calm Calm - N/A   Scattered Clouds
6:35 AM 54.9 °F 54.1 °F 97% 30.13 in 10.0 mi Calm Calm - N/A   Clear
6:55 AM 54.9 °F 54.0 °F 97% 30.13 in 10.0 mi Calm Calm - N/A   Clear
7:15 AM 54.5 °F 53.8 °F 97% 30.14 in 10.0 mi Calm Calm - N/A   Clear
7:35 AM 54.1 °F 53.6 °F 98% 30.15 in 7.0 mi Calm Calm - N/A   Clear
7:55 AM 55.8 °F 54.9 °F 97% 30.16 in 10.0 mi Calm Calm - N/A   Clear
8:15 AM 55.8 °F 55.2 °F 98% 30.17 in 10.0 mi Calm Calm - N/A   Clear
8:35 AM 58.3 °F 55.9 °F 92% 30.17 in 10.0 mi Calm Calm - N/A   Clear
8:55 AM 58.5 °F 55.9 °F 91% 30.18 in 10.0 mi Calm Calm - N/A   Clear
9:15 AM 60.6 °F 56.8 °F 87% 30.18 in 10.0 mi Calm Calm - N/A   Clear
9:35 AM 62.8 °F 58.6 °F 86% 30.18 in 10.0 mi Calm Calm - N/A   Clear
9:55 AM 64.6 °F 59.5 °F 84% 30.18 in 10.0 mi Calm Calm - N/A   Clear
10:15 AM 65.3 °F 57.6 °F 76% 30.18 in 10.0 mi Calm Calm - N/A   Clear
10:35 AM 66.6 °F 55.2 °F 67% 30.18 in 10.0 mi Calm Calm - N/A   Clear
10:55 AM 68.2 °F 55.2 °F 63% 30.18 in 10.0 mi WSW 4.6 mph - N/A   Clear
11:15 AM 69.1 °F 57.0 °F 65% 30.17 in 10.0 mi WSW 3.5 mph - N/A   Clear
11:35 AM 70.9 °F 58.3 °F 64% 30.17 in 10.0 mi Calm Calm - N/A   Clear
11:55 AM 72.3 °F 58.6 °F 62% 30.17 in 10.0 mi WSW 5.8 mph - N/A   Clear
12:15 PM 73.6 °F 59.2 °F 61% 30.17 in 10.0 mi WSW 3.5 mph - N/A   Clear
12:35 PM 72.7 °F 57.9 °F 60% 30.17 in 10.0 mi WSW 4.6 mph - N/A   Clear
12:55 PM 73.6 °F 58.8 °F 60% 30.17 in 10.0 mi WSW 3.5 mph - N/A   Clear
1:15 PM 74.5 °F 59.2 °F 59% 30.17 in 10.0 mi WSW 5.8 mph - N/A   Clear
1:35 PM 75.6 °F 59.2 °F 57% 30.17 in 10.0 mi WSW 5.8 mph - N/A   Clear
1:55 PM 76.6 °F 60.4 °F 57% 30.16 in 10.0 mi Calm Calm - N/A   Scattered Clouds
2:15 PM 75.6 °F 58.3 °F 55% 30.16 in 10.0 mi Calm Calm - N/A   Scattered Clouds
2:55 PM 76.5 °F 59.7 °F 56% 30.16 in 10.0 mi West 3.5 mph - N/A   Mostly Cloudy
3:15 PM 76.6 °F 60.3 °F 57% 30.15 in 10.0 mi Calm Calm - N/A   Scattered Clouds
3:35 PM 76.6 °F 60.6 °F 58% 30.15 in 10.0 mi Calm Calm - N/A   Clear
3:55 PM 76.1 °F 60.6 °F 59% 30.14 in 10.0 mi WSW 5.8 mph - N/A   Clear
4:15 PM 76.5 °F 61.7 °F 60% 30.14 in 10.0 mi WSW 3.5 mph - N/A   Clear
4:35 PM 75.9 °F 61.5 °F 61% 30.14 in 10.0 mi WSW 3.5 mph - N/A   Clear
4:55 PM 75.9 °F 61.5 °F 61% 30.14 in 10.0 mi Calm Calm - N/A   Clear
5:15 PM 75.7 °F 62.1 °F 62% 30.15 in 10.0 mi WSW 4.6 mph - N/A   Clear
5:35 PM 75.4 °F 62.1 °F 63% 30.15 in 10.0 mi Calm Calm - N/A   Clear
5:55 PM 75.2 °F 62.6 °F 65% 30.15 in 10.0 mi Calm Calm - N/A   Clear
6:15 PM 74.5 °F 62.1 °F 65% 30.16 in 10.0 mi Calm Calm - N/A   Clear
6:55 PM 75.4 °F 62.4 °F 64% 30.17 in 10.0 mi Calm Calm - N/A   Clear
7:15 PM 74.7 °F 61.5 °F 63% 30.17 in 10.0 mi Calm Calm - N/A   Clear
7:35 PM 74.7 °F 54.0 °F 48% 30.18 in 10.0 mi West 4.6 mph - N/A   Clear
7:55 PM 73.0 °F 54.3 °F 52% 30.18 in 10.0 mi Calm Calm - N/A   Clear
8:15 PM 73.4 °F 50.0 °F 44% 30.19 in 10.0 mi Calm Calm - N/A   Clear
8:35 PM 72.3 °F 49.6 °F 45% 30.19 in 10.0 mi West 3.5 mph - N/A   Clear
8:55 PM 69.3 °F 50.7 °F 52% 30.19 in 10.0 mi Calm Calm - N/A   Clear
9:15 PM 68.5 °F 53.1 °F 58% 30.20 in 10.0 mi Calm Calm - N/A   Clear
9:35 PM 69.4 °F 51.8 °F 53% 30.20 in 10.0 mi Calm Calm - N/A   Clear
9:55 PM 67.8 °F 51.8 °F 56% 30.20 in 10.0 mi Calm Calm - N/A   Clear
10:15 PM 68.4 °F 51.8 °F 55% 30.21 in 10.0 mi Calm Calm - N/A   Clear
10:35 PM 62.1 °F 54.0 °F 75% 30.21 in 10.0 mi Calm Calm - N/A   Clear
10:55 PM 66.0 °F 52.5 °F 62% 30.21 in 10.0 mi West 3.5 mph - N/A   Clear
11:35 PM 62.1 °F 53.1 °F 72% 30.22 in 10.0 mi Calm Calm - N/A   Clear
11:55 PM 63.9 °F 52.3 °F 66% 30.22 in 10.0 mi Calm Calm - N/A   Clear